Location: Amador Mine
(37.9367°N, 107.6270°W)
Time: 19:31:52
(UTC+00:00)

Daily predictions for brighter satellites

Satellite Brightness Start Highest point End
(mag) Time Altitude Azimuth Time Altitude Azimuth Time Altitude Azimuth
ATLAS 5 CENTAUR R/B 1.3 12:05:18 41° WSW 12:06:23 57° NW 12:10:34 10° NNE
Iridium 51 4.2 12:02:50 10° N 12:06:32 75° E 12:10:01 10° S
CBERS 1 LM4 rocket 4.3 12:02:19 10° N 12:06:59 57° WNW 12:10:56 14° SSW
Cosmos 1140 Rocket 3.4 12:01:52 10° SSW 12:07:04 89° ESE 12:12:17 10° NNE
CZ-2C R/B 3.8 12:04:58 10° NNW 12:07:32 20° NW 12:07:32 20° NW
RESURS DK-1 4.5 12:07:12 10° SSE 12:10:43 28° ESE 12:14:14 10° NE
CZ-2C R/B 4.1 12:09:53 10° SSE 12:11:08 11° SSE 12:12:23 10° SE
Cosmos 1328 Rocket 3.6 12:07:25 10° S 12:11:42 78° E 12:16:01 10° N
NOSS 3-4 (A) 3.4 12:09:10 22° SW 12:12:57 61° NW 12:19:03 10° NNE
NOSS 3-4 (C) 3.4 12:09:14 22° SW 12:13:03 61° NW 12:19:10 10° NNE
Milstar 3 Cent rocket 3.1 12:11:55 20° SW 12:14:06 27° S 12:18:05 10° SE
Meteor 1-25 Rocket 4.1 12:12:30 10° NNW 12:18:04 77° W 12:23:36 10° S
Cosmos 1023 Rocket 4.4 12:13:57 10° SSW 12:19:07 68° WNW 12:24:18 10° NNE
Meteor 1-31 Rocket 2.6 12:15:21 10° N 12:19:11 70° WNW 12:22:58 10° SSW
Cosmos 2219 4.2 12:14:18 10° S 12:19:43 48° ESE 12:25:08 10° NNE
NOSS 3-2 (C) 4.1 12:12:54 10° NW 12:20:45 78° WSW 12:29:28 10° SSE
SeaSat 1 2.9 12:16:23 10° SE 12:21:14 64° ENE 12:26:07 10° NNW
FENGYUN 3A 4.3 12:17:06 10° N 12:21:56 34° WNW 12:25:55 14° SW
Cosmos 2322 3.9 12:17:46 10° NNW 12:23:13 49° WSW 12:28:37 10° S
ADEOS 3.5 12:18:36 10° N 12:23:47 66° WNW 12:28:56 10° SSW
Cosmos 1805 Rocket 4.4 12:20:57 10° NNW 12:24:43 27° W 12:28:27 10° SSW
MOS 1 Rocket 3.2 12:21:04 10° SSE 12:25:25 86° ENE 12:30:00 10° N
CZ-4C R/B 2.6 12:23:22 22° WSW 12:26:03 38° NW 12:31:22 10° NNE
Cosmos 1470 Rocket 4.2 12:22:19 10° N 12:26:36 57° E 12:30:50 10° SSE
COSMO-SKYMED 1 2.7 12:22:32 10° SSE 12:26:52 80° ENE 12:31:13 10° N
ATLAS 2AS CENTAUR R/B 3.0 12:20:03 10° SW 12:27:57 78° WNW 12:35:51 10° NNE
Landsat 5 4.3 12:25:18 10° SSW 12:28:22 23° W 12:31:28 10° NW
SJ-12 3.8 12:24:52 10° N 12:28:54 66° WNW 12:32:54 10° SSW
Delta 2 Rocket 4.0 12:26:46 21° W 12:29:49 58° S 12:34:59 10° ESE
deb Chang Zheng 4 4.0 12:30:10 10° NNE 12:34:27 67° ESE 12:38:44 10° S
ISS -1.8 12:31:43 10° NNW 12:34:35 26° NNE 12:37:28 10° E
Nadezhda 1 Rocket 4.0 12:30:03 10° S 12:36:10 89° W 12:42:25 10° N
CZ-4B R/B 3.2 12:33:03 10° NNE 12:37:36 85° ESE 12:42:04 10° SSW
Cosmos 1437 Rocket 3.2 12:34:26 10° SSW 12:38:17 41° WNW 12:42:07 10° N
Cosmos 1484 Rocket 4.3 12:38:35 10° NNW 12:40:59 17° WNW 12:41:55 15° W
Sich 1 4.2 12:39:36 10° NW 12:43:01 22° W 12:46:25 10° SW
Meteor 1-14 Rocket 4.4 12:37:29 10° N 12:43:12 86° E 12:49:01 10° S
Cosmos 1782 3.3 12:42:24 10° SSW 12:46:02 36° W 12:49:43 10° N
Cosmos 1933 Rocket 4.1 12:42:40 10° N 12:47:07 65° E 12:51:32 10° SSE
Meteor PRIRODA 3.6 12:43:37 10° N 12:47:21 75° WNW 12:51:03 10° SSW
Cosmos 2360 Rocket 3.8 12:46:09 12° W 12:47:36 13° W 12:50:01 10° WSW
GPS 2-04 Rocket1 2.8 12:45:07 14° W 12:48:08 57° S 12:51:57 10° ESE
Cosmos 1666 Rocket 4.2 12:44:32 10° NNW 12:48:27 33° W 12:52:23 10° SSW
CZ-3 R/B 3.2 12:38:04 10° WSW 12:55:00 43° S 13:00:29 10° ESE
Cosmos 2237 Rocket 2.6 12:49:29 10° NNW 12:55:10 70° ENE 13:00:46 10° SSE
Meteor 2-6 Rocket 4.4 12:51:20 10° S 12:57:19 87° W 13:03:13 10° N
Cosmos 2327 Rocket 4.4 12:55:13 10° NNW 13:01:17 70° W 13:07:18 10° S
Cosmos 1954 Rocket 4.2 12:58:22 10° SW 13:03:30 52° WNW 13:08:37 10° N
H-2A R/B 3.5 13:02:03 10° SW 13:04:49 17° W 13:07:33 10° NW
ATLAS 3B R/B 3.7 12:59:29 10° NNW 13:06:22 53° NE 13:13:30 10° SE
ERS-2 2.4 13:02:56 10° SSE 13:06:32 75° ENE 13:10:11 10° N
Cosmos 1500 3.3 13:02:51 10° NNW 13:06:34 55° W 13:10:18 10° S
CZ-4B R/B 2.1 13:04:16 10° SSW 13:07:01 28° W 13:09:44 10° NW
Cosmos 1295 Rocket 4.4 13:02:48 10° N 13:08:52 73° W 13:14:56 10° S
Cosmos 1151 Rocket 4.4 13:06:21 10° WSW 13:09:22 18° WNW 13:12:23 10° NNW
Cosmos 2227 Rocket 2.2 13:03:48 10° SSW 13:09:27 76° WNW 13:15:09 10° NNE
Meteor 1-10 Rocket 4.4 13:03:42 10° S 13:09:38 88° W 13:15:31 10° N
